Location: *
(43.0833°N, 13.0500°E)
Time: 16:36:50
(UTC+00:00)

Cosmos 1151 Rocket - Pass Details

Date: 15 November 2019
Orbit: 592 x 616 km, 82.5° (Epoch: 14 December)

Event Time Altitude Azimuth Distance (km) Brightness Sun altitude
Rises 18:05:05 0° 201° (SSW) 2,856 6.8 -25.7°
Reaches altitude 10° 18:07:21 10° 207° (SSW) 1,960 5.9 -26.1°
Maximum altitude 18:11:32 48° 282° (WNW) 810 3.9 -26.8°
Enters shadow 18:13:25 29° 339° (NNW) 1,139 4.5 -27.2°
